�������l�o���
Date,Time,MP-1(��Sv/h),MP-2(��Sv/h),MP-3(��Sv/h),MP-4(��Sv/h),MP-5(��Sv/h),MP-6(��Sv/h),MP-7(��Sv/h),MP-8(��Sv/h),����,����(m/s),���J
2017/06/14,00:00,1.012,1.619,1.070,1.908,1.325,0.537,0.982,0.908,��,2.5,��
2017/06/14,00:10,1.014,1.618,1.072,1.908,1.322,0.538,0.985,0.906,��쓌,2.6,��
2017/06/14,00:20,1.013,1.616,1.071,1.908,1.322,0.537,0.984,0.906,��쓌,2.8,��
2017/06/14,00:30,1.011,1.616,1.067,1.908,1.321,0.537,0.982,0.906,��쓌,2.5,��
2017/06/14,00:40,1.012,1.618,1.068,1.909,1.323,0.537,0.982,0.905,��쓌,2.5,��
2017/06/14,00:50,1.015,1.615,1.069,1.906,1.322,0.536,0.984,0.907,��쓌,2.3,��
2017/06/14,01:00,1.012,1.619,1.071,1.908,1.322,0.537,0.984,0.907,��쓌,2.6,��
2017/06/14,01:10,1.012,1.617,1.072,1.907,1.323,0.538,0.983,0.908,��,2.3,��
2017/06/14,01:20,1.011,1.617,1.067,1.908,1.319,0.536,0.984,0.906,��,1.7,��
2017/06/14,01:30,1.015,1.616,1.071,1.905,1.322,0.538,0.984,0.907,�쐼,0.9,��
2017/06/14,01:40,1.013,1.616,1.072,1.908,1.322,0.536,0.982,0.907,��쐼,1.2,��
2017/06/14,01:50,1.012,1.617,1.072,1.908,1.321,0.536,0.983,0.907,�쐼,1.7,��
2017/06/14,02:00,1.014,1.617,1.069,1.905,1.321,0.537,0.983,0.907,���쐼,2.0,��
2017/06/14,02:10,1.014,1.617,1.070,1.907,1.323,0.536,0.982,0.907,��쐼,1.4,��
2017/06/14,02:20,1.012,1.613,1.070,1.909,1.324,0.537,0.982,0.907,��,1.2,��
2017/06/14,02:30,1.015,1.619,1.071,1.907,1.322,0.536,0.983,0.907,��쓌,0.9,��
2017/06/14,02:40,1.013,1.615,1.071,1.907,1.322,0.537,0.984,0.907,��쓌,1.4,��
2017/06/14,02:50,1.012,1.617,1.071,1.907,1.321,0.537,0.983,0.906,�쓌,1.2,��
2017/06/14,03:00,1.014,1.616,1.070,1.910,1.322,0.535,0.982,0.907,��쓌,1.1,��
2017/06/14,03:10,1.012,1.618,1.070,1.907,1.322,0.537,0.982,0.907,��쓌,0.8,��
2017/06/14,03:20,1.014,1.616,1.072,1.906,1.320,0.536,0.982,0.906,��쐼,1.1,��
2017/06/14,03:30,1.015,1.615,1.070,1.906,1.325,0.536,0.982,0.905,��쐼,1.2,��
2017/06/14,03:40,1.014,1.619,1.071,1.911,1.323,0.537,0.983,0.906,��쐼,1.2,��
2017/06/14,03:50,1.015,1.618,1.071,1.909,1.325,0.536,0.984,0.909,��쐼,2.0,��
2017/06/14,04:00,1.014,1.614,1.069,1.907,1.322,0.535,0.984,0.906,��쐼,2.6,��
2017/06/14,04:10,1.014,1.616,1.069,1.906,1.322,0.534,0.984,0.907,��쐼,2.6,��
2017/06/14,04:20,1.013,1.618,1.072,1.908,1.323,0.535,0.981,0.907,�쐼,1.7,��
2017/06/14,04:30,1.014,1.618,1.070,1.908,1.322,0.535,0.984,0.909,�쐼,1.1,��
2017/06/14,04:40,1.013,1.617,1.071,1.909,1.322,0.537,0.984,0.906,��,2.0,��
2017/06/14,04:50,1.012,1.616,1.068,1.911,1.323,0.536,0.983,0.908,��쐼,1.7,��
2017/06/14,05:00,1.013,1.618,1.070,1.908,1.323,0.537,0.984,0.907,��,1.2,��
2017/06/14,05:10,1.015,1.615,1.071,1.911,1.323,0.536,0.983,0.907,��쓌,0.9,��
2017/06/14,05:20,1.014,1.615,1.071,1.909,1.322,0.538,0.983,0.908,-,CALM,��
2017/06/14,05:30,1.013,1.616,1.072,1.909,1.323,0.536,0.982,0.908,�k�k��,0.9,��
2017/06/14,05:40,1.015,1.617,1.071,1.910,1.322,0.536,0.984,0.908,�k,1.7,��
2017/06/14,05:50,1.017,1.620,1.072,1.911,1.322,0.539,0.982,0.905,�k,1.9,��
2017/06/14,06:00,1.014,1.618,1.073,1.912,1.324,0.536,0.984,0.907,�k,2.3,��
2017/06/14,06:10,1.015,1.619,1.073,1.910,1.323,0.536,0.984,0.906,�k,3.0,��
2017/06/14,06:20,1.015,1.621,1.072,1.914,1.325,0.536,0.983,0.909,�k�k��,3.3,��
2017/06/14,06:30,1.016,1.618,1.073,1.914,1.325,0.535,0.984,0.909,�k,2.9,��
2017/06/14,06:40,1.015,1.621,1.073,1.911,1.323,0.536,0.982,0.909,�k,3.6,��
2017/06/14,06:50,1.014,1.622,1.074,1.913,1.324,0.537,0.982,0.909,�k,3.1,��
2017/06/14,07:00,1.013,1.620,1.073,1.912,1.319,0.537,0.981,0.910,�k,2.9,��
2017/06/14,07:10,1.014,1.620,1.073,1.911,1.323,0.536,0.983,0.908,�k,2.6,�L
2017/06/14,07:20,1.016,1.620,1.072,1.911,1.322,0.536,0.983,0.910,�k,2.3,�L
2017/06/14,07:30,1.015,1.619,1.073,1.913,1.323,0.538,0.982,0.908,�k,2.5,�L
2017/06/14,07:40,1.014,1.621,1.073,1.913,1.323,0.537,0.983,0.910,�k,2.5,��
2017/06/14,07:50,1.014,1.618,1.073,1.910,1.324,0.537,0.981,0.908,�k,2.6,��
2017/06/14,08:00,1.017,1.619,1.073,1.910,1.324,0.536,0.981,0.906,�k,3.0,��
2017/06/14,08:10,1.016,1.618,1.076,1.910,1.321,0.537,0.982,0.907,�k,3.2,��
2017/06/14,08:20,1.014,1.614,1.072,1.912,1.324,0.535,0.981,0.908,�k,3.1,��
2017/06/14,08:30,1.013,1.615,1.075,1.911,1.324,0.536,0.981,0.906,�k,3.7,��
2017/06/14,08:40,1.015,1.617,1.075,1.911,1.321,0.535,0.984,0.907,�k�k��,4.5,��
2017/06/14,08:50,1.012,1.615,1.073,1.913,1.322,0.534,0.981,0.906,�k�k��,4.2,��
2017/06/14,09:00,1.010,1.614,1.071,1.910,1.321,0.535,0.981,0.907,�k�k��,5.0,��
2017/06/14,09:10,1.012,1.618,1.071,1.910,1.324,0.535,0.983,0.906,�k�k��,5.7,��
2017/06/14,09:20,1.013,1.618,1.069,1.914,1.323,0.534,0.982,0.906,�k�k��,4.4,��
2017/06/14,09:30,1.014,1.617,1.072,1.914,1.322,0.534,0.983,0.907,�k�k��,4.2,��
2017/06/14,09:40,1.014,1.616,1.069,1.911,1.325,0.533,0.983,0.907,�k�k��,4.1,��
2017/06/14,09:50,1.015,1.616,1.071,1.912,1.322,0.534,0.982,0.904,�k�k��,3.9,��
2017/06/14,10:00,1.013,1.618,1.072,1.915,1.324,0.535,0.983,0.905,�k�k��,3.8,��
2017/06/14,10:10,1.016,1.618,1.071,1.913,1.325,0.534,0.984,0.905,�k�k��,4.1,��
2017/06/14,10:20,1.017,1.620,1.071,1.914,1.325,0.533,0.984,0.905,�k�k��,3.9,��
2017/06/14,10:30,1.015,1.620,1.072,1.914,1.325,0.534,0.985,0.907,�k��,3.9,��
2017/06/14,10:40,1.015,1.619,1.072,1.916,1.326,0.535,0.984,0.907,�k��,3.4,��
2017/06/14,10:50,1.016,1.623,1.072,1.915,1.326,0.534,0.985,0.905,�k�k��,3.4,��
2017/06/14,11:00,1.016,1.618,1.073,1.913,1.325,0.535,0.984,0.905,�k��,3.5,��
2017/06/14,11:10,1.017,1.617,1.070,1.915,1.327,0.533,0.984,0.904,�k��,3.9,��
2017/06/14,11:20,1.017,1.623,1.074,1.911,1.327,0.535,0.984,0.905,���k��,3.5,��
2017/06/14,11:30,1.017,1.622,1.073,1.912,1.326,0.536,0.983,0.906,�k��,5.1,��
2017/06/14,11:40,1.020,1.623,1.073,1.910,1.328,0.536,0.981,0.907,�k�k��,4.3,��
2017/06/14,11:50,1.019,1.620,1.074,1.913,1.328,0.535,0.981,0.906,�k��,4.4,��
2017/06/14,12:00,1.018,1.624,1.074,1.912,1.330,0.536,0.983,0.905,�k��,4.2,��
2017/06/14,12:10,1.017,1.624,1.074,1.914,1.331,0.535,0.982,0.908,�k��,4.1,��
2017/06/14,12:20,1.019,1.627,1.074,1.915,1.332,0.537,0.984,0.907,�k��,3.6,��
2017/06/14,12:30,1.018,1.625,1.078,1.913,1.331,0.537,0.985,0.908,���k��,4.1,��
2017/06/14,12:40,1.017,1.626,1.074,1.915,1.332,0.537,0.986,0.908,��,4.3,��
2017/06/14,12:50,1.020,1.629,1.076,1.916,1.332,0.537,0.985,0.906,���k��,4.1,��
2017/06/14,13:00,1.020,1.628,1.075,1.914,1.331,0.536,0.984,0.906,���k��,3.3,��
2017/06/14,13:10,1.018,1.623,1.075,1.915,1.333,0.536,0.985,0.907,���k��,3.6,��
2017/06/14,13:20,1.020,1.629,1.075,1.917,1.333,0.537,0.985,0.908,���쓌,3.4,��
2017/06/14,13:30,1.020,1.629,1.075,1.915,1.333,0.538,0.984,0.907,��,3.3,��
2017/06/14,13:40,1.022,1.630,1.076,1.918,1.335,0.537,0.985,0.907,��,3.3,��
2017/06/14,13:50,1.019,1.629,1.077,1.916,1.337,0.538,0.985,0.907,��,2.9,��
2017/06/14,14:00,1.020,1.629,1.077,1.916,1.336,0.536,0.988,0.907,��,2.9,��
2017/06/14,14:10,1.019,1.628,1.076,1.915,1.333,0.536,0.985,0.907,���쓌,2.6,��
2017/06/14,14:20,1.022,1.631,1.075,1.916,1.336,0.533,0.986,0.907,���쓌,3.0,��
2017/06/14,14:30,1.021,1.629,1.078,1.917,1.335,0.528,0.987,0.907,���쓌,3.6,��
2017/06/14,14:40,1.019,1.632,1.077,1.917,1.338,0.529,0.985,0.907,���쓌,3.0,��
2017/06/14,14:50,1.021,1.628,1.076,1.919,1.336,0.534,0.984,0.906,��,3.9,��
2017/06/14,15:00,1.022,1.630,1.074,1.920,1.336,0.538,0.983,0.908,���쓌,3.2,��
2017/06/14,15:10,1.021,1.632,1.076,1.916,1.337,0.539,0.986,0.907,���쓌,2.9,��
2017/06/14,15:20,1.020,1.629,1.079,1.918,1.339,0.539,0.986,0.909,�쓌,3.9,��
2017/06/14,15:30,1.022,1.629,1.080,1.920,1.339,0.539,0.986,0.906,���쓌,3.3,��
2017/06/14,15:40,1.021,1.627,1.076,1.917,1.336,0.538,0.987,0.908,�쓌,2.9,��
2017/06/14,15:50,1.022,1.630,1.076,1.918,1.336,0.539,0.988,0.908,�쓌,3.6,��
2017/06/14,16:00,1.021,1.630,1.076,1.919,1.337,0.537,0.985,0.908,�쓌,2.6,��
2017/06/14,16:10,1.022,1.632,1.078,1.917,1.337,0.539,0.987,0.908,���쓌,3.4,��
2017/06/14,16:20,1.023,1.631,1.072,1.920,1.335,0.537,0.985,0.907,��,3.2,��
2017/06/14,16:30,1.021,1.631,1.076,1.920,1.337,0.538,0.986,0.907,�쓌,0.9,��
2017/06/14,16:40,1.019,1.629,1.080,1.919,1.334,0.538,0.986,0.908,��,2.6,��
2017/06/14,16:50,1.022,1.633,1.078,1.921,1.336,0.539,0.983,0.906,���쓌,2.5,��
2017/06/14,17:00,1.021,1.636,1.079,1.921,1.336,0.539,0.986,0.909,���쓌,1.7,��
2017/06/14,17:10,1.021,1.635,1.080,1.917,1.337,0.539,0.985,0.906,��,2.0,��
2017/06/14,17:20,1.018,1.634,1.078,1.919,1.336,0.539,0.984,0.907,��,3.5,��
2017/06/14,17:30,1.020,1.636,1.079,1.922,1.334,0.541,0.985,0.908,���쓌,3.4,��
2017/06/14,17:40,1.018,1.636,1.082,1.922,1.334,0.539,0.985,0.908,���쓌,3.4,��
2017/06/14,17:50,1.020,1.634,1.080,1.921,1.336,0.540,0.983,0.909,���쓌,2.8,��
2017/06/14,18:00,1.021,1.634,1.081,1.924,1.334,0.541,0.986,0.908,���쓌,2.5,��
2017/06/14,18:10,1.021,1.636,1.081,1.920,1.332,0.539,0.986,0.909,���쓌,3.0,��
2017/06/14,18:20,1.022,1.634,1.080,1.923,1.335,0.539,0.985,0.906,�쓌,2.0,��
2017/06/14,18:30,1.022,1.635,1.081,1.924,1.334,0.539,0.984,0.908,��,2.0,��
2017/06/14,18:40,1.020,1.634,1.081,1.923,1.337,0.539,0.985,0.910,���k��,2.3,��
2017/06/14,18:50,1.022,1.634,1.082,1.922,1.335,0.541,0.984,0.910,���k��,2.3,��
2017/06/14,19:00,1.022,1.633,1.081,1.921,1.335,0.538,0.985,0.909,�k��,1.2,��
2017/06/14,19:10,1.023,1.632,1.081,1.923,1.337,0.538,0.984,0.910,�k��,1.4,��
2017/06/14,19:20,1.021,1.635,1.081,1.923,1.339,0.539,0.984,0.910,�k��,1.9,��
2017/06/14,19:30,1.023,1.633,1.081,1.920,1.339,0.540,0.986,0.910,�k��,1.7,��
2017/06/14,19:40,1.022,1.633,1.082,1.922,1.335,0.541,0.985,0.910,�k,1.4,��
2017/06/14,19:50,1.022,1.634,1.080,1.924,1.336,0.538,0.985,0.911,�k�k��,1.1,��
2017/06/14,20:00,1.021,1.635,1.082,1.925,1.337,0.538,0.986,0.911,-,CALM,��
2017/06/14,20:10,1.020,1.634,1.082,1.922,1.337,0.539,0.985,0.910,��,0.6,��
2017/06/14,20:20,1.021,1.633,1.079,1.923,1.336,0.537,0.985,0.910,���쓌,1.4,��
2017/06/14,20:30,1.020,1.635,1.081,1.925,1.339,0.537,0.986,0.910,-,CALM,��
2017/06/14,20:40,1.022,1.633,1.080,1.922,1.338,0.539,0.985,0.909,-,CALM,��
2017/06/14,20:50,1.023,1.635,1.082,1.924,1.339,0.538,0.986,0.910,�k��,1.1,��
2017/06/14,21:00,1.022,1.632,1.080,1.926,1.339,0.538,0.986,0.911,�k�k��,0.9,��
2017/06/14,21:10,1.023,1.636,1.082,1.923,1.338,0.539,0.986,0.910,�k��,0.9,��
2017/06/14,21:20,1.021,1.632,1.083,1.920,1.337,0.538,0.986,0.909,�k�k��,1.7,��
2017/06/14,21:30,1.022,1.633,1.081,1.922,1.336,0.539,0.986,0.911,�k��,1.1,��
2017/06/14,21:40,1.023,1.632,1.080,1.925,1.338,0.540,0.986,0.909,�k�k��,1.5,��
2017/06/14,21:50,1.023,1.632,1.078,1.921,1.337,0.538,0.986,0.909,�k�k��,1.7,��
2017/06/14,22:00,1.021,1.630,1.081,1.920,1.331,0.539,0.986,0.909,�k�k��,1.2,��
2017/06/14,22:10,1.022,1.632,1.079,1.920,1.334,0.539,0.986,0.908,�k��,1.4,��
2017/06/14,22:20,1.022,1.632,1.078,1.922,1.335,0.539,0.985,0.909,���k��,1.4,��
2017/06/14,22:30,1.021,1.632,1.079,1.918,1.334,0.537,0.987,0.907,���k��,1.1,��
2017/06/14,22:40,1.023,1.630,1.076,1.923,1.333,0.539,0.986,0.907,���k��,0.9,��
2017/06/14,22:50,1.020,1.632,1.080,1.917,1.335,0.538,0.986,0.910,��,0.6,��
2017/06/14,23:00,1.020,1.632,1.078,1.921,1.336,0.537,0.988,0.909,�쐼,0.6,��
2017/06/14,23:10,1.020,1.629,1.078,1.922,1.336,0.538,0.986,0.909,���k��,0.6,��
2017/06/14,23:20,1.023,1.630,1.078,1.921,1.337,0.538,0.988,0.908,�쐼,0.6,��
2017/06/14,23:30,1.022,1.629,1.079,1.920,1.335,0.539,0.985,0.909,���쐼,0.8,��
2017/06/14,23:40,1.019,1.627,1.078,1.920,1.336,0.539,0.986,0.908,-,CALM,��
2017/06/14,23:50,1.020,1.631,1.078,1.918,1.334,0.537,0.985,0.907,��,0.6,��
